DW5542 Weather Reports


time (UTC)temp
C
wind
direction
speed
KPH
gust
KPH
rain 1hr
cm
rain 24hr
cm
rain mn
cm
humidity
%
barometer
mb
20260510140055 22 18 1.6 20.9 0.00 0.00 0.00 59 1009.4
20260510134607 22 176 4.8 16.1 0.00 0.00 0.00 57 1009.7
20260510133052 22 96 6.4 17.7 0.00 0.00 0.00 55 1009.9
20260510131550 21 218 0.0 14.5 0.00 0.00 0.00 60 1010.1
20260510130048 22 240 1.6 17.7 0.00 0.00 0.00 60 1010.3
20260510124554 22 243 1.6 8.0 0.00 0.15 0.00 58 1010.3
20260510123045 22 200 0.0 8.0 0.00 0.15 0.00 61 1010.4
20260510121542 21 157 0.0 14.5 0.00 0.15 0.00 60 1010.6
20260510120041 22 240 0.0 6.4 0.00 0.15 0.00 58 1010.9
20260510114540 21 169 0.0 12.9 0.00 0.43 0.00 59 1011.1
20260510113037 21 156 0.0 14.5 0.00 0.43 0.00 61 1011.2
20260510111551 22 171 0.0 6.4 0.00 0.43 0.00 58 1011.4
20260510110033 22 245 0.0 4.8 0.00 0.43 0.00 52 1011.4
20260510104529 21 224 0.0 3.2 0.00 0.64 0.00 55 1011.5
20260510103029 22 63 0.0 0.0 0.00 0.64 0.00 57 1011.8
20260510101523 20 127 0.0 0.0 0.00 0.64 0.00 61 1012.0
20260510100022 20 259 0.0 6.4 0.00 0.64 0.00 62 1012.1
20260510094529 20 352 0.0 12.9 0.00 1.04 0.00 63 1012.3
20260510093017 20 357 0.0 14.5 0.00 1.04 0.00 62 1012.4
20260510091520 19 331 0.0 6.4 0.00 1.04 0.00 65 1012.3
20260510090011 18 10 0.0 11.3 0.00 1.04 0.00 72 1012.4
20260510084506 17 263 0.0 11.3 0.00 1.32 0.00 78 1012.5
20260510083002 17 264 0.0 0.0 0.00 1.32 0.00 80 1012.6
20260510081628 16 262 0.0 0.0 0.00 1.32 0.00 85 1012.6
20260510080057 16 323 0.0 0.0 0.00 1.32 0.00 87 1012.6
20260510074554 15 302 0.0 0.0 0.00 1.32 0.00 88 1012.8
20260510073049 15 323 0.0 0.0 0.00 1.32 0.00 89 1012.7
20260510071548 14 328 0.0 0.0 0.00 1.32 0.00 90 1012.7
20260510070048 14 342 0.0 3.2 0.00 1.32 0.00 92 1012.6
20260510064546 13 346 0.0 0.0 0.00 1.32 0.00 93 1012.5
20260510063045 13 324 0.0 0.0 0.00 1.32 0.00 94 1012.3
20260510061545 12 324 0.0 0.0 0.00 1.32 0.00 94 1012.2
20260510060051 12 325 0.0 0.0 0.00 1.32 0.00 94 1012.1
20260510054544 11 324 0.0 0.0 0.00 1.32 0.00 94 1011.9
20260510053043 11 324 0.0 0.0 0.00 1.32 0.00 94 1011.8
20260510051557 -17 0.0 0.0 0.00 1.32 0.00 1011.5
20260510050040 -17 0.0 0.0 0.00 1.32 0.00 1011.4
20260510044534 -17 0.0 0.0 0.00 1.32 0.00 1011.4
20260510043027 -17 0.0 0.0 0.00 1.32 0.00 1011.4
20260510041528 -17 0.0 0.0 0.00 1.32 0.00 1011.4
20260510040020 11 274 0.0 0.0 0.00 1.32 0.00 94 1011.3
20260510034519 12 31 0.0 0.0 0.00 1.32 0.00 94 1011.3
20260510033018 12 31 0.0 0.0 0.00 1.32 0.00 94 1011.2
20260510031517 12 11 0.0 0.0 0.00 1.32 0.00 93 1011.2
20260510030014 12 12 0.0 0.0 0.00 1.32 0.00 93 1011.2
20260510024514 12 11 0.0 0.0 0.00 1.32 0.00 94 1011.3
20260510023030 12 12 0.0 0.0 0.00 1.32 0.00 94 1011.4
20260510021511 12 334 0.0 0.0 0.00 1.32 0.00 94 1011.4
20260510020010 12 333 0.0 0.0 0.00 1.32 0.00 93 1011.4
20260510014507 12 333 0.0 0.0 0.00 1.32 0.00 94 1011.3
20260510013012 12 333 0.0 0.0 0.00 1.32 0.00 94 1011.4
20260510011512 13 333 0.0 0.0 0.00 1.32 0.00 94 1011.4
20260510010010 13 333 0.0 0.0 0.00 1.32 0.00 94 1011.5
20260510004500 13 333 0.0 0.0 0.00 1.32 0.00 94 1011.8
20260510003107 13 333 0.0 0.0 0.00 1.32 0.00 93 1011.9
20260510001557 13 334 0.0 0.0 0.00 1.32 0.00 93 1012.0
20260510000054 13 320 0.0 0.0 0.00 1.32 0.00 93 1012.0
20260509234556 13 320 0.0 0.0 0.00 1.32 0.00 93 1012.1
20260509233049 14 319 0.0 0.0 0.00 1.32 0.00 93 1012.2
20260509231558 14 319 0.0 0.0 0.00 1.32 0.00 93 1012.3
20260509230046 14 319 0.0 0.0 0.00 1.32 0.00 92 1012.4
20260509224545 15 319 0.0 0.0 0.00 1.32 0.00 92 1012.2
20260509223044 15 319 0.0 0.0 0.00 1.32 0.00 92 1012.5
20260509221541 15 319 0.0 0.0 0.00 1.32 0.00 92 1012.5
20260509220039 15 345 0.0 0.0 0.00 1.32 0.00 92 1012.8
20260509214537 14 354 0.0 0.0 0.00 1.32 1.32 91 1012.8
20260509213040 15 23 0.0 0.0 0.00 1.32 1.32 91 1012.4
20260509211601 15 36 0.0 0.0 0.00 1.32 1.32 90 1012.3
20260509210031 15 37 0.0 0.0 0.00 1.32 1.32 90 1012.3
20260509204530 15 214 0.0 0.0 0.00 1.32 1.32 89 1012.2
20260509203040 16 213 0.0 0.0 0.00 1.32 1.32 88 1012.1
20260509201529 16 213 0.0 0.0 0.00 1.32 1.32 87 1012.0
20260509200028 16 214 0.0 0.0 0.00 1.32 1.32 87 1011.5
20260509194527 16 213 0.0 0.0 0.00 1.32 1.32 86 1011.6
20260509193027 16 148 0.0 0.0 0.00 1.32 1.32 85 1011.3
20260509191527 16 128 0.0 0.0 0.00 1.32 1.32 85 1010.8
20260509190026 16 128 0.0 0.0 0.00 1.32 1.32 84 1010.9
20260509184526 17 139 0.0 0.0 0.00 1.32 1.32 83 1010.6
20260509183025 17 158 0.0 4.8 0.00 1.32 1.32 82 1010.4
20260509181524 17 162 0.0 0.0 0.00 1.32 1.32 80 1010.4
20260509180023 18 186 0.0 0.0 0.00 1.32 1.32 77 1010.2
20260509174523 18 186 0.0 8.0 0.00 1.32 1.32 78 1009.8
20260509173022 18 249 0.0 8.0 0.00 1.32 1.32 76 1009.5
20260509171521 18 158 0.0 6.4 0.00 1.32 1.32 75 1009.4
20260509170021 19 135 0.0 8.0 0.00 1.32 1.32 74 1009.2
20260509164521 19 139 0.0 6.4 0.00 1.32 1.32 74 1009.2
20260509163023 20 152 0.0 6.4 0.00 1.32 1.32 72 1009.3
20260509161519 19 143 0.0 8.0 0.00 1.32 1.32 74 1009.3
20260509160016 19 113 0.0 0.0 0.00 1.32 1.32 75 1009.3
20260509154516 18 136 0.0 6.4 0.00 1.32 1.32 76 1009.6
20260509153019 18 81 0.0 6.4 0.00 1.32 1.32 77 1009.6
20260509151510 18 80 0.0 6.4 0.00 1.32 1.32 79 1009.5
20260509150008 18 108 0.0 1.6 0.00 1.32 1.32 81 1009.6
20260509144506 17 105 0.0 4.8 0.00 1.32 1.32 83 1009.6
20260509143005 17 118 0.0 1.6 0.00 1.32 1.32 83 1009.7
20260509141601 17 105 0.0 0.0 0.00 1.32 1.32 88 1009.9